GW5021 Weather Reports


Display with metric or nautical units.
time (UTC)temp
F
wind
direction
speed
MPH
gust
MPH
rain 1hr
in
rain 24hr
in
rain mn
in
humidity
%
barometer
mb
20260506031505 59 139 0.0 2.0 0.00 0.00 0.00 72 1016.4
20260506031003 60 111 0.0 2.0 0.00 0.00 0.00 72 1016.3
20260506030504 60 162 0.0 2.0 0.00 0.00 0.00 72 1016.2
20260506030005 60 160 1.0 2.0 0.00 0.00 0.00 72 1016.2
20260506025503 60 136 1.0 2.0 0.00 0.00 0.00 71 1016.2
20260506025008 61 159 0.0 2.0 0.00 0.00 0.00 69 1016.2
20260506024503 61 297 0.0 1.0 0.00 0.00 0.00 67 1016.1
20260506024004 61 297 0.0 1.0 0.00 0.00 0.00 67 1016.0
20260506023504 61 297 0.0 1.0 0.00 0.00 0.00 67 1016.1
20260506023006 61 297 0.0 1.0 0.00 0.00 0.00 67 1016.0
20260506022503 61 260 0.0 1.0 0.00 0.00 0.00 67 1016.0
20260506022003 61 315 0.0 1.0 0.00 0.00 0.00 67 1015.9
20260506021504 61 336 0.0 1.0 0.00 0.00 0.00 67 1016.0
20260506021009 61 343 0.0 1.0 0.00 0.00 0.00 67 1016.1
20260506020504 61 343 0.0 1.0 0.00 0.00 0.00 67 1016.1
20260506020003 61 110 0.0 1.0 0.00 0.00 0.00 68 1016.1
20260506015504 61 134 0.0 1.0 0.00 0.00 0.00 68 1016.1
20260506015004 61 187 0.0 1.0 0.00 0.00 0.00 69 1016.2
20260506014505 61 187 0.0 0.0 0.00 0.00 0.00 69 1016.2
20260506014004 61 187 0.0 0.0 0.00 0.00 0.00 69 1016.2
20260506013505 61 187 0.0 0.0 0.00 0.00 0.00 68 1016.2
20260506013007 61 185 0.0 2.0 0.00 0.00 0.00 69 1016.2
20260506012504 61 185 0.0 2.0 0.00 0.00 0.00 69 1016.2
20260506012004 61 45 0.0 2.0 0.00 0.00 0.00 68 1016.0
20260506011506 62 112 0.0 1.0 0.00 0.00 0.00 67 1016.1
20260506011004 62 109 0.0 1.0 0.00 0.00 0.00 66 1016.1
20260506010507 62 139 0.0 2.0 0.00 0.00 0.00 65 1016.1
20260506010007 62 300 0.0 2.0 0.00 0.00 0.00 65 1016.0
20260506005504 62 224 0.0 3.0 0.00 0.00 0.00 65 1016.0
20260506005004 62 342 0.0 3.0 0.00 0.00 0.00 65 1015.9
20260506004511 62 320 0.0 2.0 0.00 0.00 0.00 65 1015.9
20260506004004 62 289 0.0 2.0 0.00 0.00 0.00 65 1015.9
20260506003507 62 205 0.0 2.0 0.00 0.00 0.00 65 1015.9
20260506003007 62 274 0.0 2.0 0.00 0.00 0.00 65 1015.8
20260506002504 62 294 0.0 2.0 0.00 0.00 0.00 64 1015.8
20260506002004 63 264 0.0 2.0 0.00 0.00 0.00 65 1015.8
20260506001509 63 338 0.0 2.0 0.00 0.00 0.00 64 1015.8
20260506001004 63 139 0.0 2.0 0.00 0.00 0.00 64 1015.7
20260506000504 63 150 0.0 2.0 0.00 0.00 0.00 63 1015.6
20260506000009 63 313 0.0 2.0 0.00 0.00 0.00 63 1015.6
20260505235505 63 254 0.0 1.0 0.00 0.00 0.00 64 1015.6
20260505235006 63 288 0.0 2.0 0.00 0.00 0.00 63 1015.7
20260505234508 63 290 0.0 2.0 0.00 0.00 0.00 63 1015.7
20260505234004 64 346 0.0 1.0 0.00 0.00 0.00 62 1015.7
20260505233508 63 200 0.0 2.0 0.00 0.00 0.00 64 1015.7
20260505233012 63 188 0.0 2.0 0.00 0.00 0.00 64 1015.7
20260505232504 63 291 1.0 3.0 0.00 0.00 0.00 64 1015.8
20260505232006 63 330 1.0 3.0 0.00 0.00 0.00 64 1015.7
20260505231518 63 311 1.0 3.0 0.00 0.00 0.00 64 1015.8
20260505231011 63 248 1.0 4.0 0.00 0.00 0.00 65 1015.8
20260505230502 62 263 1.0 5.0 0.00 0.00 0.00 65 1015.9
20260505230020 62 288 2.0 5.0 0.00 0.00 0.00 65 1015.8
20260505225504 62 323 1.0 6.0 0.00 0.00 0.00 66 1015.9
20260505225004 62 347 1.0 6.0 0.00 0.00 0.00 66 1015.9
20260505224515 62 317 3.0 6.0 0.00 0.00 0.00 65 1015.9
20260505224009 62 337 1.0 4.0 0.00 0.00 0.00 67 1015.9
20260505223505 62 303 1.0 5.0 0.00 0.00 0.00 67 1016.0
20260505223011 61 300 1.0 5.0 0.00 0.00 0.00 67 1015.9
20260505222503 61 313 1.0 4.0 0.00 0.00 0.00 67 1016.0
20260505222004 61 357 1.0 4.0 0.00 0.00 0.00 68 1016.0
20260505221510 61 293 0.0 2.0 0.00 0.00 0.00 68 1016.0
20260505221006 61 7 0.0 3.0 0.00 0.00 0.00 68 1016.1
20260505220505 61 345 0.0 3.0 0.00 0.00 0.00 68 1016.1
20260505220014 61 357 1.0 3.0 0.00 0.00 0.00 67 1016.1
20260505215505 61 360 2.0 3.0 0.00 0.00 0.00 67 1016.2
20260505215003 61 20 1.0 5.0 0.00 0.00 0.00 67 1016.1
20260505214512 61 6 2.0 5.0 0.00 0.00 0.00 67 1016.1
20260505214004 61 347 1.0 4.0 0.00 0.00 0.00 68 1016.1
20260505213504 61 3 2.0 5.0 0.00 0.00 0.00 67 1016.1
20260505213022 61 360 2.0 5.0 0.00 0.00 0.00 68 1016.2
20260505212504 61 309 2.0 5.0 0.00 0.00 0.00 68 1016.3
20260505212004 61 5 0.0 2.0 0.00 0.00 0.00 68 1016.2
20260505211516 60 356 1.0 2.0 0.00 0.00 0.00 68 1016.3
20260505211005 60 340 1.0 2.0 0.00 0.00 0.00 68 1016.4
20260505210504 60 356 1.0 4.0 0.00 0.00 0.00 68 1016.4
20260505210017 60 25 1.0 4.0 0.00 0.00 0.00 68 1016.4
20260505205508 61 333 1.0 3.0 0.00 0.00 0.00 68 1016.4
20260505205009 61 304 1.0 3.0 0.00 0.00 0.00 68 1016.4
20260505204515 61 4 1.0 3.0 0.00 0.00 0.00 68 1016.3
20260505204008 61 352 2.0 3.0 0.00 0.00 0.00 67 1016.3
20260505203503 61 327 1.0 3.0 0.00 0.00 0.00 68 1016.3
20260505203027 61 328 2.0 5.0 0.00 0.00 0.00 68 1016.4
20260505202504 61 4 1.0 5.0 0.00 0.00 0.00 67 1016.4
20260505202005 61 11 1.0 4.0 0.00 0.00 0.00 67 1016.3
20260505201528 61 11 1.0 5.0 0.00 0.00 0.00 67 1016.3
20260505201009 61 356 1.0 5.0 0.00 0.00 0.00 66 1016.3
20260505200505 61 313 0.0 4.0 0.00 0.00 0.00 67 1016.3
20260505200017 60 314 1.0 5.0 0.00 0.00 0.00 68 1016.3
20260505195506 59 276 1.0 5.0 0.00 0.00 0.00 69 1016.4
20260505195008 58 338 0.0 3.0 0.00 0.00 0.00 71 1016.4
20260505194516 58 282 1.0 5.0 0.00 0.00 0.00 72 1016.5
20260505194009 58 304 1.0 5.0 0.00 0.00 0.00 72 1016.6
20260505193506 58 300 1.0 5.0 0.00 0.00 0.00 72 1016.6
20260505193015 58 262 0.0 5.0 0.00 0.00 0.00 71 1016.6
20260505192509 58 274 0.0 3.0 0.00 0.00 0.00 71 1016.6
20260505192007 58 284 0.0 3.0 0.00 0.00 0.00 72 1016.6
20260505191520 58 357 0.0 1.0 0.00 0.00 0.00 72 1016.6
20260505191007 57 1 0.0 1.0 0.00 0.00 0.00 73 1016.6
20260505190510 57 354 0.0 1.0 0.00 0.00 0.00 73 1016.6
20260505190018 57 360 0.0 2.0 0.00 0.00 0.00 72 1016.6
20260505185509 58 340 0.0 4.0 0.00 0.00 0.00 71 1016.6
20260505185010 58 354 0.0 4.0 0.00 0.00 0.00 70 1016.6
20260505184525 58 278 1.0 4.0 0.00 0.00 0.00 70 1016.6
20260505184006 58 295 0.0 3.0 0.00 0.00 0.00 69 1016.5
20260505183511 58 293 1.0 4.0 0.00 0.00 0.00 69 1016.5
20260505183023 58 297 1.0 4.0 0.00 0.00 0.00 69 1016.4
20260505182507 58 298 0.0 4.0 0.00 0.00 0.00 69 1016.3
20260505182007 58 316 0.0 2.0 0.00 0.00 0.00 69 1016.3
20260505181520 58 198 0.0 2.0 0.00 0.00 0.00 69 1016.3
20260505181007 58 314 0.0 2.0 0.00 0.00 0.00 69 1016.3
20260505180511 58 165 0.0 2.0 0.00 0.00 0.00 70 1016.3
20260505180021 58 289 0.0 2.0 0.00 0.00 0.00 70 1016.2
20260505175505 57 347 1.0 2.0 0.00 0.00 0.00 70 1016.3
20260505175005 57 323 0.0 1.0 0.00 0.00 0.00 69 1016.2
20260505174529 57 326 0.0 2.0 0.00 0.00 0.00 70 1016.1
20260505174004 57 300 1.0 3.0 0.00 0.00 0.00 69 1016.1
20260505173504 58 247 0.0 3.0 0.00 0.00 0.00 68 1016.1
20260505173007 58 262 0.0 2.0 0.00 0.00 0.00 69 1016.0
20260505172504 58 302 0.0 2.0 0.00 0.00 0.00 68 1016.0
20260505172010 58 345 0.0 3.0 0.00 0.00 0.00 69 1016.0
20260505171511 58 139 0.0 3.0 0.00 0.00 0.00 70 1016.0
20260505171005 57 307 0.0 2.0 0.00 0.00 0.00 70 1016.0
20260505170504 57 307 0.0 2.0 0.00 0.00 0.00 70 1015.9
20260505170021 57 3 0.0 2.0 0.00 0.00 0.00 70 1016.0
20260505165507 57 149 0.0 2.0 0.00 0.00 0.00 71 1016.0
20260505165008 57 337 1.0 2.0 0.00 0.00 0.00 70 1016.0
20260505164522 57 143 0.0 1.0 0.00 0.00 0.00 71 1016.0
20260505164009 56 218 0.0 1.0 0.00 0.00 0.00 71 1016.0
20260505163510 56 292 0.0 1.0 0.00 0.00 0.00 72 1016.0
20260505163023 56 207 0.0 2.0 0.00 0.00 0.00 72 1016.1
20260505162506 56 206 0.0 2.0 0.00 0.00 0.00 72 1016.0
20260505162002 56 242 0.0 1.0 0.00 0.00 0.00 72 1015.9
20260505161509 56 238 0.0 1.0 0.00 0.00 0.00 72 1015.8
20260505161005 55 152 0.0 1.0 0.00 0.00 0.00 73 1015.8
20260505160504 55 288 0.0 1.0 0.00 0.00 0.00 73 1015.7
20260505153022 54 293 0.0 2.0 0.00 0.00 0.00 75 1015.7
20260505152508 54 293 0.0 2.0 0.00 0.00 0.00 75 1015.6
20260505152010 54 283 0.0 2.0 0.00 0.00 0.00 75 1015.6
20260505151522 54 307 0.0 2.0 0.00 0.00 0.00 75 1015.6
20260505151009 54 288 0.0 1.0 0.00 0.00 0.00 76 1015.6
20260505150504 54 288 0.0 1.0 0.00 0.00 0.00 76 1015.7
20260505140511 52 132 0.0 1.0 0.00 0.00 0.00 77 1015.1
20260505125010 52 345 0.0 0.0 0.00 0.00 0.00 76 1014.8
20260505124526 52 345 0.0 0.0 0.00 0.00 0.00 75 1014.7
20260505124007 52 345 0.0 0.0 0.00 0.00 0.00 75 1014.8
20260505123507 52 345 0.0 1.0 0.00 0.00 0.00 75 1014.9
20260505123015 52 345 0.0 1.0 0.00 0.00 0.00 75 1014.8
20260505122503 52 345 0.0 1.0 0.00 0.00 0.00 75 1014.8
20260505122010 52 345 0.0 1.0 0.00 0.00 0.00 75 1014.9
20260505121520 53 328 0.0 1.0 0.00 0.00 0.00 74 1015.0
20260505121008 53 328 0.0 1.0 0.00 0.00 0.00 74 1015.1
20260505120510 53 328 0.0 1.0 0.00 0.00 0.00 74 1015.0
20260505120022 53 328 0.0 2.0 0.00 0.00 0.00 74 1015.0
20260505115508 53 307 0.0 3.0 0.00 0.00 0.00 73 1014.9
20260505115009 53 305 1.0 3.0 0.00 0.00 0.00 73 1014.9
20260505114527 53 291 0.0 2.0 0.00 0.00 0.00 74 1014.9
20260505114011 53 291 0.0 2.0 0.00 0.00 0.00 73 1014.9
20260505113510 53 309 0.0 3.0 0.00 0.00 0.00 73 1014.9
20260505113026 53 309 0.0 3.0 0.00 0.00 0.00 73 1014.9
20260505112507 53 295 0.0 2.0 0.00 0.00 0.00 73 1014.8
20260505112008 53 296 0.0 2.0 0.00 0.00 0.00 73 1014.7
20260505111514 53 307 0.0 2.0 0.00 0.00 0.00 74 1014.8
20260505111004 53 289 0.0 2.0 0.00 0.00 0.00 74 1014.9
20260505110507 53 316 0.0 2.0 0.00 0.00 0.00 74 1014.9
20260505102011 53 293 1.0 3.0 0.00 0.00 0.00 76 1014.7
20260505101532 53 349 0.0 2.0 0.00 0.00 0.00 76 1014.8
20260505101011 54 316 1.0 4.0 0.00 0.00 0.00 76 1014.9
20260505100511 54 319 0.0 4.0 0.00 0.00 0.00 76 1014.9
20260505100020 54 339 1.0 4.0 0.00 0.00 0.00 75 1014.8
20260505095507 54 11 1.0 2.0 0.00 0.00 0.00 75 1014.9
20260505095004 54 309 1.0 3.0 0.00 0.00 0.00 75 1014.9
20260505094502 54 294 0.0 4.0 0.00 0.00 0.00 74 1015.0
20260505094003 54 288 0.0 4.0 0.00 0.00 0.00 74 1015.0
20260505093503 54 294 2.0 4.0 0.00 0.00 0.00 74 1015.1
20260505093006 54 292 1.0 4.0 0.00 0.00 0.00 74 1015.1
20260505092504 54 307 0.0 4.0 0.00 0.00 0.00 74 1015.0
20260505092004 54 314 1.0 3.0 0.00 0.00 0.00 74 1015.1
20260505091510 54 302 0.0 3.0 0.00 0.00 0.00 75 1015.1
20260505091007 54 238 0.0 5.0 0.00 0.00 0.00 75 1015.1
20260505090503 54 7 1.0 6.0 0.00 0.00 0.00 75 1015.1
20260505090014 54 313 2.0 6.0 0.00 0.00 0.00 75 1015.2
20260505085506 54 343 1.0 3.0 0.00 0.00 0.00 75 1015.2
20260505085011 54 278 0.0 4.0 0.00 0.00 0.00 75 1015.3
20260505084519 54 288 0.0 4.0 0.00 0.00 0.00 75 1015.3
20260505084007 54 355 1.0 4.0 0.00 0.00 0.00 75 1015.3
20260505083507 55 342 1.0 4.0 0.00 0.00 0.00 75 1015.3
20260505083024 54 322 1.0 3.0 0.00 0.00 0.00 75 1015.3
20260505082503 54 356 1.0 3.0 0.00 0.00 0.00 75 1015.3
20260505082003 54 333 0.0 2.0 0.00 0.00 0.00 75 1015.3
20260505081508 55 342 0.0 2.0 0.00 0.00 0.00 75 1015.3
20260505081007 55 323 0.0 3.0 0.00 0.00 0.00 74 1015.3
20260505080504 55 318 0.0 3.0 0.00 0.00 0.00 75 1015.2
20260505080011 55 286 0.0 3.0 0.00 0.00 0.00 74 1015.3
20260505075503 55 281 0.0 3.0 0.00 0.00 0.00 74 1015.4
20260505075003 55 304 1.0 3.0 0.00 0.00 0.00 74 1015.4
20260505074517 55 297 1.0 3.0 0.00 0.00 0.00 74 1015.5
20260505074008 55 43 1.0 3.0 0.00 0.00 0.00 75 1015.5
20260505073509 55 323 0.0 2.0 0.00 0.00 0.00 75 1015.5
20260505073020 55 340 0.0 4.0 0.00 0.00 0.00 75 1015.4
20260505072507 55 295 1.0 4.0 0.00 0.00 0.00 74 1015.3
20260505072007 55 283 0.0 1.0 0.00 0.00 0.00 75 1015.3
20260505071525 55 283 0.0 1.0 0.00 0.00 0.00 75 1015.4
20260505071003 55 283 0.0 1.0 0.00 0.00 0.00 74 1015.3
20260505070504 55 283 0.0 2.0 0.00 0.00 0.00 74 1015.3
20260505070006 55 283 0.0 2.0 0.00 0.00 0.00 75 1015.2
20260505065502 55 297 0.0 1.0 0.00 0.00 0.00 75 1015.2
20260505065005 55 297 0.0 2.0 0.00 0.00 0.00 75 1015.2
20260505064514 55 297 0.0 2.0 0.00 0.00 0.00 75 1015.2
20260505064005 55 357 0.0 1.0 0.00 0.00 0.00 75 1015.2
20260505063507 55 358 0.0 1.0 0.00 0.00 0.00 75 1015.3
20260505063018 55 6 1.0 1.0 0.00 0.00 0.00 74 1015.2
20260505062510 55 353 0.0 1.0 0.00 0.00 0.00 74 1015.2
20260505062010 55 354 1.0 1.0 0.00 0.00 0.00 74 1015.1
20260505061523 56 337 0.0 2.0 0.00 0.00 0.00 73 1015.0
20260505061011 56 353 1.0 2.0 0.00 0.00 0.00 73 1015.1
20260505060509 56 284 1.0 2.0 0.00 0.00 0.00 73 1015.2
20260505060031 56 336 0.0 1.0 0.00 0.00 0.00 73 1015.3
20260505055503 56 346 0.0 1.0 0.00 0.00 0.00 73 1015.3
20260505055003 56 346 0.0 1.0 0.00 0.00 0.00 73 1015.4
20260505054514 56 346 0.0 1.0 0.00 0.00 0.00 73 1015.4
20260505054006 56 346 1.0 1.0 0.00 0.00 0.00 72 1015.5
20260505053503 56 325 0.0 2.0 0.00 0.00 0.00 72 1015.5
20260505053017 56 325 0.0 2.0 0.00 0.00 0.00 72 1015.6
20260505052507 56 314 0.0 2.0 0.00 0.00 0.00 71 1015.5
20260505052004 56 312 0.0 2.0 0.00 0.00 0.00 71 1015.5
20260505051520 56 305 0.0 2.0 0.00 0.00 0.00 70 1015.5
20260505051007 56 329 0.0 2.0 0.00 0.00 0.00 70 1015.6
20260505050510 56 328 0.0 2.0 0.00 0.00 0.00 70 1015.5
20260505041517 57 323 0.0 1.0 0.00 0.00 0.00 68 1015.1
20260505041007 57 323 0.0 1.0 0.00 0.00 0.00 68 1015.1
20260505040509 57 318 0.0 1.0 0.00 0.00 0.00 68 1015.0
20260505040020 57 308 0.0 2.0 0.00 0.00 0.00 68 1014.9
20260505035511 57 301 0.0 3.0 0.00 0.00 0.00 67 1014.8
20260505035008 57 328 1.0 3.0 0.00 0.00 0.00 67 1014.7
20260505034526 57 302 1.0 2.0 0.00 0.00 0.00 67 1014.7
20260505034008 57 356 0.0 2.0 0.00 0.00 0.00 66 1014.6
20260505033507 57 4 1.0 2.0 0.00 0.00 0.00 66 1014.6
20260505033037 58 326 1.0 2.0 0.00 0.00 0.00 65 1014.6
20260505032510 58 359 0.0 5.0 0.00 0.00 0.00 65 1014.6
20260505032005 58 308 1.0 5.0 0.00 0.00 0.00 65 1014.5